Location: Kingsclere
(51.3167°N, 1.2500°W)
Time: 14:33:54
(UTC+00:00)

Daily predictions for brighter satellites

Satellite Brightness Start Highest point End
(mag) Time Altitude Azimuth Time Altitude Azimuth Time Altitude Azimuth
USA 234 3.3 16:25:29 10° ESE 16:32:01 72° NNE 16:38:30 10° WNW
Cosmos 2333 Rocket 4.0 16:30:43 10° N 16:33:30 13° NNE 16:36:16 10° NE
Cosmos 2278 4.1 16:28:29 10° NNW 16:33:57 43° NE 16:39:22 10° ESE
ERBS 3.2 16:33:17 10° W 16:36:14 33° NNW 16:39:13 10° NE
NOSS 2-2 (E) 4.4 16:31:14 10° NW 16:36:16 90° NNE 16:43:23 10° SE
Cosmos 1602 4.1 16:32:42 10° N 16:36:24 42° ENE 16:40:06 10° SSE
NOSS 2-2 (D) 4.2 16:31:44 10° NW 16:36:37 79° NE 16:43:26 10° SE
SL-16 R/B 4.3 16:35:32 10° NW 16:37:42 12° NNW 16:39:53 10° N
Meteor 1-25 Rocket 4.2 16:32:31 10° N 16:38:04 65° ENE 16:43:39 10° SSE
Cosmos 1833 Rocket 2.9 16:32:58 10° S 16:38:25 55° ESE 16:43:56 10° NE
NOAA 11 4.2 16:34:24 10° SSE 16:39:50 87° ENE 16:45:20 10° NNW
ATLAS CENTAUR R/B 3.6 16:30:26 10° SW 16:40:47 52° SE 16:45:08 10° ENE
Cosmos 1633 Rocket 4.2 16:40:36 10° NNE 16:44:05 23° ENE 16:47:35 10° ESE
Envisat 4.4 16:40:29 10° S 16:45:19 44° W 16:50:11 10° NNW
Cosmos 2219 Rocket 4.0 16:43:22 10° N 16:45:52 13° NNE 16:48:21 10° NE
CZ-4C R/B 2.9 16:40:18 10° NW 16:47:11 71° NE 16:55:24 10° SE
CZ-2C R/B 4.2 16:45:22 10° NE 16:48:04 14° E 16:50:46 10° ESE
Cosmos 1606 3.6 16:46:00 10° SSW 16:49:40 49° WNW 16:53:24 10° N
Cosmos 1151 Rocket 4.4 16:46:47 10° SE 16:49:55 20° E 16:53:05 10° NE
Cosmos 1500 3.6 16:47:56 10° N 16:51:29 39° ENE 16:55:00 10° SE
NOAA 6 4.2 16:47:20 10° SE 16:52:18 52° ENE 16:57:16 10° N
COSMOS 2406 3.4 16:47:14 10° S 16:52:49 56° ESE 16:58:25 10° NE
Cosmos 540 Rocket 3.7 16:48:05 10° S 16:52:59 50° ESE 16:57:55 10° NNE
YAOGAN 1 4.5 16:54:08 10° NE 16:54:19 10° NE 16:55:04 10° NE
MOS 1 Rocket 4.1 16:49:41 10° N 16:54:35 56° WNW 16:59:09 10° SSW
Meteor 1-31 Rocket 4.5 16:52:16 10° SSW 16:55:50 37° W 16:59:26 10° NNW
Cosmos 2034 Rocket 4.0 16:51:18 10° S 16:57:28 87° E 17:03:41 10° N
Meteor 2-14 Rocket 4.5 16:51:40 10° N 16:57:43 60° ENE 17:03:42 10° SSE
SL-24 R/B - RUBIN 2 3.8 16:53:54 10° NW 16:58:30 76° SW 17:02:49 10° SE
USA 306 3.0 16:55:24 10° WNW 16:59:38 62° N 17:03:40 11° E
Cosmos 1743 Rocket 3.9 16:57:22 10° NNW 17:01:42 71° W 17:06:00 10° S
Cosmos 1939 Rocket 2.9 16:57:49 10° SSE 17:01:52 62° ENE 17:05:52 10° N
AQUARIUS 4.3 17:00:02 10° SE 17:04:24 54° ENE 17:08:48 10° N
CZ-2D R/B 3.8 17:04:47 10° SE 17:08:16 35° ENE 17:11:45 10° N
CZ-4B R/B 3.7 17:03:44 10° SE 17:08:31 34° ENE 17:13:16 10° N
Cosmos 1782 3.0 17:06:57 10° S 17:10:48 50° E 17:14:41 10° NNE
Cosmos 2026 Rocket 3.9 17:06:36 10° N 17:12:46 79° E 17:18:49 10° SSE
Cosmos 1666 Rocket 3.8 17:08:39 10° N 17:12:57 46° ENE 17:17:11 10° SSE
Cosmos 1634 Rocket 4.1 17:09:05 10° S 17:15:18 61° E 17:21:32 10° NNE
Cosmos 1470 Rocket 4.4 17:12:27 10° N 17:16:19 28° ENE 17:20:10 10° SE
SMAP 3.0 17:14:16 10° SSE 17:18:56 84° ENE 17:23:37 10° NNW
PAYLOAD B 4.3 17:13:32 10° SE 17:19:00 56° ENE 17:24:27 10° N
Cosmos 2360 Rocket 3.2 17:14:57 10° NNW 17:19:36 25° NE 17:22:41 16° E
USA 307 2.9 17:15:32 10° WNW 17:19:47 65° N 17:22:57 17° E
Cosmos 1814 Rocket 4.4 17:15:18 10° S 17:20:10 41° ESE 17:24:20 14° NE
Cosmos 1666 2.8 17:16:49 10° N 17:20:25 46° ENE 17:24:01 10° SSE
Okean O Rocket 2.4 17:16:47 10° ESE 17:20:36 29° ENE 17:24:27 10° N
Cosmos 468 Rocket 4.3 17:16:21 10° SW 17:21:29 66° WNW 17:26:44 10° NNE
EP 1 4.4 17:18:59 10° SW 17:22:07 68° SE 17:23:31 25° NE
Cosmos 1570 Rocket 4.5 17:19:19 10° S 17:24:09 39° ESE 17:28:03 15° NE
Meteor 2-21 Rocket 4.4 17:18:53 10° N 17:25:00 70° ENE 17:31:02 10° SSE
Cosmos 2298 Rocket 4.3 17:21:48 10° NNW 17:26:58 46° ENE 17:32:05 10° SE
Lacrosse 5 rocket 1.2 17:25:50 10° WNW 17:29:42 85° SSW 17:33:49 10° SE
Cosmos 2221 4.5 17:26:29 10° SW 17:30:13 29° WNW 17:34:01 10° N
Sich 1 3.3 17:27:01 10° NNW 17:31:18 70° W 17:35:36 10° S
Cosmos 44 Rocket 3.2 17:29:18 10° NW 17:34:17 83° NE 17:39:05 10° SE
COSMOS 2428 4.2 17:35:47 10° NNW 17:39:32 17° NNE 17:40:23 17° NE
USA 267 3.4 17:34:56 19° ENE 17:39:46 65° SE 17:46:15 10° SW
ATLAS CENTAUR R/B 3.6 17:37:26 10° NW 17:40:23 17° N 17:42:37 13° NNE
Cosmos 1818 3.6 17:36:28 10° NW 17:42:00 89° SW 17:47:28 10° SE
Cosmos 2322 Rocket 2.5 17:36:35 10° NNW 17:42:04 44° NE 17:47:06 12° ESE
USA 308 2.8 17:38:10 10° WNW 17:42:26 73° NNE 17:44:41 27° E
deb Chang Zheng 4 3.7 17:40:27 10° SE 17:44:37 51° ENE 17:48:49 10° N
Meteor 1-26 Rocket 4.4 17:38:56 10° SSW 17:44:57 86° WNW 17:51:03 10° NNE
Meteor 1-11 Rocket 4.0 17:40:30 10° N 17:45:52 43° ENE 17:51:19 10° SE
Cosmos 1980 Rocket 3.1 17:40:29 10° NW 17:45:59 52° WSW 17:51:24 10° S
H-2A R/B 4.5 17:48:35 13° NNE 17:48:35 13° NNE 17:49:13 10° N
Cosmos 1655 Rocket 4.1 17:40:37 10° N 17:46:53 52° ENE 17:53:04 10° SSE
PSLV R/B 3.7 17:43:16 10° SSE 17:46:59 81° WSW 17:50:47 10° NNW
SeaSat 1 4.3 17:46:23 10° NNE 17:50:15 24° NW 17:54:06 10° W
ISS -0.9 17:49:45 10° W 17:52:04 17° SW 17:54:23 10° S
Cosmos 1812 2.6 17:48:54 10° S 17:52:44 86° E 17:55:51 15° NNE
Cosmos 371 Rocket 4.4 17:49:45 10° N 17:53:23 25° NE 17:53:23 25° NE
CZ-4 R/B 3.5 17:59:08 13° N 17:59:08 13° N 17:59:41 10° N
COSMOS 2455 2.9 17:50:25 10° SW 17:56:27 81° NW 18:00:48 20° NE
Cosmos 841 Rocket 3.8 17:53:40 10° SW 17:58:48 67° WNW 18:03:13 14° NNE
Cosmos 1544 3.1 17:57:31 10° N 18:01:04 51° ENE 18:04:37 10° SSE
SL-16 R/B 2.1 17:56:23 10° NNW 18:02:05 72° ENE 18:07:45 10° SE
Cosmos 2208 Rocket 4.1 17:56:45 10° S 18:02:07 64° ESE 18:05:19 25° NE
Cosmos 1515 Rocket 3.9 17:58:19 10° SSE 18:02:27 40° E 18:02:40 39° E
Cosmos 2150 Rocket 3.9 17:57:53 10° NNW 18:03:05 77° ENE 18:08:19 10° SSE
Cosmos 1900 4.3 17:58:24 10° SSW 18:03:11 60° ESE 18:04:56 37° ENE
Cosmos 2237 Rocket 4.1 18:00:47 10° N 18:03:29 13° NNE 18:03:30 13° NNE
APEX 4.5 18:01:16 10° S 18:03:16 22° SSE 18:03:16 22° SSE
SJ-11-01 4.2 18:00:51 10° SSE 18:05:35 72° ENE 18:10:19 10° N
Cosmos 1356 Rocket 3.5 18:02:21 10° N 18:06:29 53° ENE 18:10:39 10° SSE
Cosmos 2082 Rocket 2.3 18:01:10 10° SW 18:06:50 74° WNW 18:10:56 20° NNE
USA 305 2.8 18:03:05 10° WNW 18:07:20 88° SSW 18:08:42 43° ESE
GEOS 3 Rocket 3.9 18:06:17 35° E 18:08:01 48° NE 18:12:58 10° NW
NOSS 3-4 (A) 4.2 18:03:20 10° NW 18:09:29 40° NNE 18:11:54 31° ENE
NOSS 3-4 (C) 4.2 18:03:26 10° NW 18:09:36 40° NNE 18:11:58 31° ENE
Feng Yun 1-1 Rocket 4.4 18:03:57 10° SE 18:09:41 57° ENE 18:15:23 10° N
Cosmos 921 Rocket 3.0 18:05:51 10° S 18:09:56 53° ESE 18:10:24 50° E
ARGOS 3.0 18:05:11 10° SSE 18:10:35 79° ENE 18:16:01 10° NNW
H-2A R/B 2.3 18:06:00 10° S 18:11:05 67° WSW 18:16:05 10° NNW
ATLAS 2AS CENTAUR R/B 3.7 18:05:19 10° NW 18:12:05 33° N 18:14:40 26° NE
Cosmos 1125 Rocket 3.4 18:06:57 10° NNW 18:12:14 84° ENE 18:17:31 10° SSE
ERBS 3.6 18:09:48 10° NW 18:12:07 28° NNW 18:12:07 28° NNW
USA 234 3.8 18:08:47 10° SE 18:15:12 56° SW 18:21:37 10° WNW
USA 32 4.2 18:12:29 10° SSE 18:17:26 45° E 18:17:56 44° ENE
YAOGAN 3 4.5 18:13:39 10° SSE 18:18:00 89° ESE 18:22:25 10° NNW
COSMO-SKYMED 1 2.4 18:18:09 43° NNE 18:19:29 72° ESE 18:23:49 10° S
Cosmos 2333 Rocket 2.9 18:14:27 10° NNW 18:19:32 33° NE 18:19:32 33° NE
CZ-4 R/B 4.3 18:16:19 10° SSE 18:20:27 90° WSW 18:24:38 10° NNW
Cosmos 1633 Rocket 4.1 18:17:55 10° NNW 18:22:08 47° W 18:26:20 10° SSW
Cosmos 1833 Rocket 4.0 18:17:32 10° WSW 18:22:38 34° NW 18:26:50 15° NNE
SL-16 R/B 4.3 18:23:06 10° N 18:24:42 11° NNE 18:24:50 11° NNE
Helios 1B 4.4 18:25:33 53° NNE 18:26:31 79° ESE 18:30:51 10° SSW
Meteor 2-15 Rocket 4.3 18:21:03 10° S 18:27:06 66° E 18:32:13 15° NNE
Cosmos 1151 Rocket 3.8 18:22:52 10° SSW 18:27:06 51° WNW 18:30:52 13° N
CZ-2C R/B 2.4 18:25:40 21° NNE 18:29:12 85° ESE 18:34:23 10° SSW
YAOGAN 1 3.5 18:31:17 34° N 18:31:17 34° N 18:33:51 10° N
Cosmos 2219 Rocket 3.1 18:26:37 10° NNW 18:30:45 31° NNE 18:30:45 31° NNE
Landsat 5 4.1 18:33:23 40° S 18:33:23 40° S 18:36:02 10° S
SL-08 RB Rocket 3.6 18:27:34 10° SSE 18:32:13 87° ENE 18:36:50 10° NNW
CZ-4C R/B 4.2 18:28:59 10° NW 18:35:42 41° WSW 18:43:24 10° S
USA 306 3.0 18:35:22 10° WNW 18:39:34 66° SSW 18:39:40 65° SSW
Cosmos 2266 Rocket 4.2 18:34:26 10° NNW 18:40:51 77° W 18:47:15 10° S
MOS 1-B Rocket 4.4 18:37:50 10° N 18:43:42 66° WNW 18:50:22 10° SSW
Cosmos 1933 Rocket 3.8 18:44:07 10° NNW 18:48:27 65° W 18:52:44 10° S
CZ-4B R/B 4.2 18:43:50 10° S 18:48:59 45° W 18:54:06 10° NNW
Meteor 1-27 Rocket 3.5 18:46:08 10° S 18:51:37 75° E 18:51:38 75° E
Okean O Rocket 2.9 18:52:37 10° SSW 18:56:49 40° W 19:01:04 10° NNW
USA 307 3.7 18:55:31 10° WNW 18:58:59 48° WSW 18:58:59 48° WSW
Cosmos 2237 4.4 18:58:38 10° NW 19:04:19 68° WSW 19:06:10 42° S
Cosmos 2360 Rocket 2.1 18:58:38 10° NNW 19:04:21 87° WSW 19:04:31 84° S
Lacrosse 5 rocket 3.7 19:05:31 10° W 19:08:23 19° SW 19:09:33 17° SSW
ATLAS CENTAUR R/B 3.3 19:05:58 10° W 19:10:55 37° NW 19:10:55 37° NW
Aureole 3 Rocket 3.7 19:07:55 10° SSW 19:12:36 76° WNW 19:19:21 10° N
ATLAS CENTAUR R/B 4.1 19:17:39 10° NNW 19:18:44 14° NNW 19:18:44 14° NNW
USA 267 3.3 19:22:16 64° NNE 19:22:51 66° NNW 19:29:19 10° W
COSMOS 2428 4.1 19:19:31 10° NNW 19:22:24 29° N 19:22:24 29° N
Cosmos 2322 Rocket 3.3 19:20:48 10° NW 19:26:07 41° WSW 19:29:04 24° SSW
ATLAS 5 CENTAUR R/B 4.4 19:30:32 10° WNW 19:33:40 19° W 19:33:40 19° W
COSMOS 2455 4.4 19:38:11 10° W 19:43:17 28° NNW 19:43:57 27° NNW
SL-16 R/B 4.3 19:41:17 10° NW 19:45:39 23° WSW 19:50:00 10° SSW
Cosmos 2237 Rocket 4.4 19:44:09 10° NNW 19:45:21 16° NNW 19:45:21 16° NNW
Cosmos 2082 Rocket 4.2 19:47:40 10° W 19:51:55 21° NW 19:52:47 20° NNW
NOSS 3-4 (A) 4.2 19:54:13 10° NW 19:59:20 56° NW 19:59:20 56° NW
NOSS 3-4 (C) 4.2 19:54:20 10° NW 19:59:25 55° NW 19:59:25 55° NW
Cosmos 2333 Rocket 3.8 19:58:39 10° NW 20:01:34 30° NW 20:01:34 30° NW
ATLAS 2AS CENTAUR R/B 3.7 19:57:09 10° NW 20:02:05 41° NNW 20:02:05 41° NNW
Cosmos 2219 Rocket 4.2 20:10:27 10° NW 20:12:29 23° NW 20:12:29 23° NW
